When you browse on this site, cookies collect data to enhance your experience and personalize the content and advertising you see.
Visit our Privacy Policy to learn more. By continuing to use the site, you agree to this use of cookies and data.
  • In Germany
  • List of Countries
  • For 7 days
  • Water Temperature
  • Weather Map
  • Weather Widgets
  • user-avatar
    Login

    Hourly Weather Lezhe

    Today, 10 December, Tuesday

    Time Temperature Precipitation Wind Pressure Humidity
    00:00 +9°C° 0.9 mm 2 mps 732 mmHg 88%
    01:00 +9°C° 0.9 mm 2 mps 731 mmHg 90%
    02:00 +9°C° 0.7 mm 2 mps 731 mmHg 90%
    03:00 +9°C° 0.7 mm 2 mps 731 mmHg 90%
    04:00 +9°C° 0.7 mm 2 mps 730 mmHg 90%
    05:00 +9°C° 1.7 mm 2 mps 731 mmHg 91%
    06:00 +8°C° 1.7 mm 2 mps 731 mmHg 92%
    07:00 +8°C° 1.7 mm 2 mps 731 mmHg 93%
    08:00 +8°C° 1.2 mm 2 mps 731 mmHg 92%
    09:00 +8°C° 1.2 mm 2 mps 731 mmHg 91%
    10:00 +9°C° 1.2 mm 2 mps 731 mmHg 91%
    11:00 +9°C° 1 mm 2 mps 731 mmHg 90%
    12:00 +9°C° 1 mm 3 mps 731 mmHg 90%
    13:00 +9°C° 1 mm 3 mps 730 mmHg 89%
    14:00 +8°C° 0.8 mm 3 mps 730 mmHg 90%
    15:00 +8°C° 0.8 mm 3 mps 730 mmHg 90%
    16:00 +8°C° 0.8 mm 3 mps 730 mmHg 90%
    17:00 +8°C° 0.3 mm 3 mps 731 mmHg 89%
    18:00 +7°C° 0.3 mm 4 mps 731 mmHg 88%
    19:00 +7°C° 0.3 mm 4 mps 731 mmHg 87%
    20:00 +7°C° 0 mm 4 mps 731 mmHg 87%
    21:00 +7°C° 0 mm 4 mps 731 mmHg 86%
    22:00 +7°C° 0 mm 5 mps 731 mmHg 85%
    23:00 +7°C° 0 mm 5 mps 732 mmHg 85%

    Tomorrow, 11 December, Wednesday

    Time Temperature Precipitation Wind Pressure Humidity
    00:00 +7°C° 0 mm 5 mps 732 mmHg 84%
    01:00 +7°C° 0 mm 5 mps 732 mmHg 84%
    02:00 +6°C° 0 mm 5 mps 732 mmHg 83%
    03:00 +6°C° 0 mm 5 mps 732 mmHg 82%
    04:00 +6°C° 0 mm 5 mps 732 mmHg 81%
    05:00 +5°C° 0 mm 6 mps 732 mmHg 82%
    06:00 +5°C° 0 mm 6 mps 732 mmHg 82%
    07:00 +5°C° 0 mm 6 mps 732 mmHg 82%
    08:00 +7°C° 0 mm 6 mps 732 mmHg 79%
    09:00 +7°C° 0 mm 6 mps 733 mmHg 76%
    10:00 +8°C° 0 mm 6 mps 733 mmHg 72%
    11:00 +8°C° 0 mm 6 mps 732 mmHg 70%
    12:00 +8°C° 0 mm 6 mps 732 mmHg 68%
    13:00 +9°C° 0 mm 6 mps 732 mmHg 66%
    14:00 +8°C° 0 mm 5 mps 732 mmHg 68%
    15:00 +7°C° 0 mm 5 mps 732 mmHg 71%
    16:00 +6°C° 0 mm 5 mps 731 mmHg 73%
    17:00 +6°C° 0 mm 5 mps 731 mmHg 75%
    18:00 +5°C° 0 mm 4 mps 731 mmHg 77%
    19:00 +5°C° 0 mm 4 mps 732 mmHg 79%
    20:00 +4°C° 0 mm 4 mps 732 mmHg 80%
    21:00 +4°C° 0 mm 3 mps 731 mmHg 80%
    22:00 +4°C° 0 mm 3 mps 731 mmHg 81%
    23:00 +4°C° 0 mm 3 mps 731 mmHg 81%

    Day after tomorrow, 12 December, Thursday

    Time Temperature Precipitation Wind Pressure Humidity
    00:00 +3°C° 0 mm 3 mps 731 mmHg 82%
    01:00 +4°C° 0 mm 2 mps 731 mmHg 82%
    02:00 +4°C° 0 mm 2 mps 730 mmHg 82%
    03:00 +4°C° 0 mm 2 mps 730 mmHg 82%
    04:00 +4°C° 0 mm 2 mps 730 mmHg 81%
    05:00 +4°C° 0 mm 2 mps 730 mmHg 81%
    06:00 +4°C° 0 mm 2 mps 730 mmHg 81%
    07:00 +5°C° 0 mm 1 mps 730 mmHg 80%
    08:00 +7°C° 0 mm 1 mps 730 mmHg 76%
    09:00 +8°C° 0 mm 1 mps 730 mmHg 71%
    10:00 +10°C° 0 mm 1 mps 730 mmHg 67%
    11:00 +10°C° 0 mm 1 mps 730 mmHg 66%
    12:00 +11°C° 0 mm 1 mps 729 mmHg 65%
    13:00 +11°C° 0 mm 1 mps 729 mmHg 64%
    14:00 +10°C° 0 mm 1 mps 729 mmHg 69%
    15:00 +9°C° 0 mm 1 mps 729 mmHg 73%
    16:00 +9°C° 0 mm 1 mps 729 mmHg 77%
    17:00 +9°C° 0.1 mm 1 mps 729 mmHg 78%
    18:00 +7°C° 0.1 mm 2 mps 729 mmHg 79%
    19:00 +7°C° 0.1 mm 2 mps 729 mmHg 80%
    20:00 +7°C° 0.2 mm 2 mps 729 mmHg 81%
    21:00 +7°C° 0.2 mm 2 mps 729 mmHg 82%
    22:00 +7°C° 0.2 mm 3 mps 729 mmHg 83%
    23:00 +7°C° 1 mm 3 mps 728 mmHg 85%

    13 December, Friday

    Time Temperature Precipitation Wind Pressure Humidity
    00:00 +7°C° 1 mm 3 mps 728 mmHg 88%
    01:00 +7°C° 1 mm 3 mps 728 mmHg 91%
    02:00 +7°C° 1.4 mm 3 mps 728 mmHg 92%
    03:00 +7°C° 1.4 mm 3 mps 728 mmHg 92%
    04:00 +7°C° 1.4 mm 3 mps 728 mmHg 93%
    05:00 +7°C° 0.7 mm 3 mps 728 mmHg 93%
    06:00 +7°C° 0.7 mm 3 mps 728 mmHg 92%
    07:00 +7°C° 0.7 mm 3 mps 728 mmHg 92%
    08:00 +7°C° 0.7 mm 2 mps 728 mmHg 91%
    09:00 +7°C° 0.7 mm 2 mps 728 mmHg 89%
    10:00 +8°C° 0.7 mm 2 mps 728 mmHg 88%
    11:00 +8°C° 0.5 mm 2 mps 728 mmHg 86%
    12:00 +8°C° 0.5 mm 3 mps 728 mmHg 85%
    13:00 +8°C° 0.5 mm 3 mps 727 mmHg 83%
    14:00 +8°C° 0.2 mm 3 mps 727 mmHg 82%
    15:00 +8°C° 0.2 mm 3 mps 727 mmHg 81%
    16:00 +7°C° 0.2 mm 4 mps 727 mmHg 81%
    17:00 +6°C° 0.5 mm 4 mps 726 mmHg 83%
    18:00 +6°C° 0.5 mm 5 mps 725 mmHg 86%
    19:00 +5°C° 0.5 mm 6 mps 725 mmHg 88%
    20:00 +5°C° 1.8 mm 6 mps 724 mmHg 89%
    21:00 +5°C° 1.8 mm 6 mps 722 mmHg 90%
    22:00 +4°C° 1.8 mm 7 mps 721 mmHg 91%
    23:00 +5°C° 5.9 mm 7 mps 720 mmHg 92%

    14 December, Saturday

    Time Temperature Precipitation Wind Pressure Humidity
    00:00 +5°C° 5.9 mm 7 mps 719 mmHg 93%
    01:00 +5°C° 5.9 mm 7 mps 718 mmHg 94%
    02:00 +5°C° 4.5 mm 6 mps 718 mmHg 93%
    03:00 +7°C° 4.5 mm 6 mps 718 mmHg 93%
    04:00 +7°C° 4.5 mm 5 mps 718 mmHg 93%
    05:00 +7°C° 1.1 mm 5 mps 719 mmHg 92%
    06:00 +7°C° 1.1 mm 5 mps 720 mmHg 90%
    07:00 +7°C° 1.1 mm 5 mps 721 mmHg 89%
    08:00 +7°C° 0.7 mm 4 mps 722 mmHg 88%
    09:00 +8°C° 0.7 mm 3 mps 723 mmHg 86%
    10:00 +9°C° 0.7 mm 2 mps 724 mmHg 85%
    11:00 +9°C° 0.2 mm 2 mps 724 mmHg 83%
    12:00 +9°C° 0.2 mm 3 mps 725 mmHg 81%
    13:00 +10°C° 0.2 mm 3 mps 725 mmHg 79%
    14:00 +9°C° 0.1 mm 3 mps 727 mmHg 80%
    15:00 +8°C° 0.1 mm 2 mps 728 mmHg 81%
    16:00 +8°C° 0.1 mm 2 mps 729 mmHg 83%
    17:00 +7°C° 0 mm 2 mps 730 mmHg 82%
    18:00 +8°C° 0 mm 1 mps 731 mmHg 82%
    19:00 +7°C° 0 mm 1 mps 731 mmHg 82%
    20:00 +7°C° 0 mm 1 mps 732 mmHg 80%
    21:00 +7°C° 0 mm 1 mps 733 mmHg 78%
    22:00 +6°C° 0 mm 1 mps 734 mmHg 76%
    23:00 +6°C° 0 mm 1 mps 734 mmHg 75%

    15 December, Sunday

    Time Temperature Precipitation Wind Pressure Humidity
    00:00 +6°C° 0 mm 1 mps 735 mmHg 73%
    01:00 +6°C° 0 mm 1 mps 735 mmHg 72%
    02:00 +5°C° 0 mm 2 mps 736 mmHg 72%
    03:00 +5°C° 0 mm 2 mps 736 mmHg 71%
    04:00 +5°C° 0 mm 2 mps 737 mmHg 71%
    05:00 +5°C° 0 mm 2 mps 737 mmHg 70%
    06:00 +5°C° 0 mm 2 mps 737 mmHg 69%
    07:00 +6°C° 0 mm 1 mps 738 mmHg 68%
    08:00 +8°C° 0 mm 1 mps 738 mmHg 67%
    09:00 +9°C° 0 mm 1 mps 739 mmHg 65%
    10:00 +11°C° 0 mm 1 mps 739 mmHg 64%
    11:00 +11°C° 0 mm 1 mps 739 mmHg 63%
    12:00 +12°C° 0 mm 1 mps 739 mmHg 62%
    13:00 +13°C° 0 mm 1 mps 739 mmHg 61%
    14:00 +12°C° 0 mm 1 mps 739 mmHg 64%
    15:00 +11°C° 0 mm 1 mps 740 mmHg 68%
    16:00 +11°C° 0 mm 1 mps 740 mmHg 71%
    17:00 +10°C° 0 mm 1 mps 740 mmHg 71%
    18:00 +10°C° 0 mm 1 mps 741 mmHg 71%
    19:00 +9°C° 0 mm 2 mps 741 mmHg 71%
    20:00 +9°C° 0 mm 2 mps 741 mmHg 71%
    21:00 +9°C° 0 mm 2 mps 742 mmHg 71%
    22:00 +9°C° 0 mm 2 mps 742 mmHg 71%
    23:00 +10°C° 0 mm 1 mps 742 mmHg 71%
    Show more